IU1OLT-5 Weather Reports


time (UTC)temp
C
wind
direction
speed
KPH
gust
KPH
rain 1hr
cm
rain 24hr
cm
rain mn
cm
humidity
%
barometer
mb
20260507115751 18 208 16.1 22.5 0.00 0.00 0.00 80 1014.3
20260507114251 16 237 14.5 17.7 0.00 0.00 0.00 86 1014.3
20260507112751 17 237 11.3 16.1 0.00 0.00 0.00 83 1014.5
20260507111251 17 209 19.3 22.5 0.00 0.00 0.00 81 1014.4
20260507105750 17 224 14.5 19.3 0.00 0.00 0.00 81 1014.4
20260507104250 17 195 6.4 9.7 0.00 0.00 0.00 81 1014.4
20260507102749 16 236 9.7 14.5 0.00 0.00 0.00 84 1014.7
20260507101249 16 211 11.3 16.1 0.00 0.00 0.00 82 1014.4
20260507095749 17 203 19.3 25.7 0.00 0.00 0.00 81 1014.4
20260507094248 17 215 12.9 16.1 0.00 0.00 0.00 78 1014.5
20260507092748 17 192 8.0 11.3 0.00 0.00 0.00 80 1014.3
20260507091248 17 198 11.3 12.9 0.00 0.00 0.00 81 1014.3
20260507085747 17 189 8.0 12.9 0.00 0.00 0.00 81 1014.6
20260507084247 16 220 20.9 25.7 0.00 0.00 0.00 82 1014.0
20260507082747 17 272 9.7 14.5 0.00 0.00 0.00 80 1014.1
20260507081246 17 244 11.3 14.5 0.00 0.00 0.00 81 1013.8
20260507075746 17 212 11.3 16.1 0.00 0.00 0.00 81 1014.1
20260507074246 15 249 1.6 3.2 0.00 0.00 0.00 85 1013.7
20260507072745 15 233 1.6 3.2 0.00 0.00 0.00 85 1013.8
20260507071245 15 266 1.6 1.6 0.00 0.00 0.00 84 1013.7
20260507065744 15 186 1.6 1.6 0.00 0.00 0.00 82 1013.6
20260507064244 15 306 1.6 1.6 0.00 0.00 0.00 82 1013.6
20260507062744 13 197 1.6 3.2 0.00 0.00 0.00 84 1013.7
20260507061243 15 69 3.2 4.8 0.00 0.00 0.00 84 1013.3
20260507055743 15 7 4.8 4.8 0.00 0.00 0.00 80 1013.1
20260507054243 15 243 3.2 4.8 0.00 0.00 0.00 83 1013.1
20260507052742 14 311 1.6 3.2 0.00 0.00 0.00 85 1013.1
20260507051242 12 100 3.2 4.8 0.00 0.00 0.00 89 1012.8
20260507045742 13 26 4.8 6.4 0.00 0.00 0.00 87 1012.8
20260507044242 12 46 3.2 4.8 0.00 0.00 0.00 91 1012.5
20260507042741 12 302 1.6 1.6 0.00 0.00 0.00 92 1012.2
20260507041241 12 339 1.6 1.6 0.00 0.00 0.00 93 1012.6
20260507035741 12 23 3.2 4.8 0.00 0.00 0.00 92 1012.4
20260507034241 12 246 1.6 1.6 0.00 0.00 0.00 93 1012.3
20260507032741 12 316 0.0 1.6 0.00 0.00 0.00 94 1012.3
20260507031241 12 123 4.8 4.8 0.00 0.00 0.00 93 1012.3
20260507025741 12 116 3.2 4.8 0.00 0.00 0.00 94 1012.4
20260507024241 12 267 0.0 1.6 0.00 0.00 0.00 93 1012.4
20260507022740 12 86 3.2 4.8 0.00 0.00 0.00 93 1012.3
20260507021240 12 333 1.6 3.2 0.00 0.00 0.00 93 1012.3
20260507015740 12 293 1.6 3.2 0.00 0.00 0.00 91 1012.5
20260507014240 12 84 3.2 3.2 0.00 0.00 0.00 94 1012.5
20260507012740 12 52 4.8 6.4 0.00 0.00 0.00 93 1012.3
20260507011240 12 338 1.6 1.6 0.00 0.00 0.00 92 1012.5
20260507005740 12 333 1.6 3.2 0.00 0.00 0.00 92 1012.5
20260507004240 13 185 1.6 3.2 0.00 0.00 0.00 90 1012.6
20260507002739 12 74 3.2 3.2 0.00 0.00 0.00 92 1012.6
20260507001239 13 131 4.8 6.4 0.00 0.00 0.00 90 1012.4
20260506235739 13 345 1.6 3.2 0.00 0.00 0.00 91 1012.7
20260506234239 13 257 3.2 3.2 0.00 0.00 0.00 90 1012.6
20260506232739 12 321 1.6 3.2 0.00 0.00 0.00 91 1012.8
20260506231238 12 59 3.2 4.8 0.00 0.00 0.00 93 1012.6
20260506225738 13 163 4.8 4.8 0.00 0.00 0.00 91 1012.6
20260506224238 13 253 1.6 1.6 0.00 0.00 0.00 90 1012.8
20260506222738 12 64 3.2 3.2 0.00 0.00 0.00 91 1012.6
20260506221238 13 121 4.8 6.4 0.00 0.00 0.00 90 1012.6
20260506215737 13 177 3.2 3.2 0.00 0.00 3.63 90 1012.9
20260506214237 13 248 1.6 3.2 0.00 0.00 3.63 90 1012.7
20260506212737 13 197 6.4 9.7 0.00 0.00 3.63 91 1012.8
20260506211236 13 259 3.2 3.2 0.00 0.00 3.63 90 1012.6
20260506205736 13 269 0.0 0.0 0.00 0.00 3.63 92 1012.8
20260506204235 13 54 3.2 4.8 0.00 0.00 3.63 90 1012.7
20260506202735 13 263 0.0 0.0 0.00 0.00 3.63 92 1012.4
20260506201235 13 52 4.8 6.4 0.00 0.00 3.63 93 1012.3
20260506195735 13 253 1.6 3.2 0.00 0.00 3.63 92 1012.2
20260506194234 13 241 0.0 0.0 0.00 0.00 3.63 93 1012.1
20260506192734 13 267 1.6 4.8 0.00 0.00 3.63 93 1011.8
20260506191233 13 145 3.2 4.8 0.00 0.00 3.63 93 1011.5
20260506185733 13 248 3.2 4.8 0.00 0.00 3.63 93 1011.4
20260506184232 13 212 4.8 9.7 0.00 0.00 3.63 92 1011.3
20260506182732 13 228 3.2 4.8 0.00 0.00 3.63 93 1011.2
20260506181232 13 192 6.4 8.0 0.00 0.00 3.63 92 1010.8
20260506175731 13 207 8.0 11.3 0.00 0.00 3.63 92 1010.9
20260506174231 14 130 14.5 19.3 0.00 0.00 3.63 90 1010.8
20260506172731 14 196 11.3 14.5 0.00 0.00 3.63 89 1010.7
20260506171231 15 206 11.3 16.1 0.00 0.00 3.63 89 1010.6
20260506165731 15 200 8.0 9.7 0.00 0.00 3.63 89 1010.6
20260506164231 15 223 12.9 16.1 0.00 0.00 3.63 89 1010.5
20260506162730 15 177 14.5 17.7 0.00 0.00 3.63 87 1010.5
20260506161230 16 211 6.4 8.0 0.00 0.00 3.63 86 1010.5
20260506155730 15 207 12.9 17.7 0.00 0.00 3.63 92 1010.3
20260506154230 15 197 12.9 16.1 0.00 0.00 3.63 91 1010.5
20260506152729 15 215 9.7 12.9 0.00 0.00 3.63 93 1010.6
20260506151229 15 225 9.7 12.9 0.00 0.00 3.63 92 1010.3
20260506145729 17 216 14.5 22.5 0.00 0.00 3.63 86 1010.4
20260506144228 17 193 12.9 17.7 0.00 0.00 3.63 87 1010.3
20260506142728 16 234 9.7 11.3 0.00 0.00 3.63 89 1010.2
20260506141228 17 185 8.0 11.3 0.00 0.00 3.63 86 1010.1
20260506135728 17 202 12.9 19.3 0.00 0.00 3.63 88 1010.2
20260506134227 17 184 12.9 14.5 0.00 0.00 3.63 90 1010.4
20260506132727 17 265 11.3 12.9 0.00 0.00 3.63 91 1010.7
20260506131227 16 166 14.5 17.7 0.00 0.00 3.63 94 1010.4
20260506125727 16 193 8.0 14.5 0.00 0.00 3.63 93 1010.5
20260506124226 16 150 9.7 16.1 0.00 0.00 3.63 92 1010.6
20260506122726 16 214 14.5 17.7 0.00 0.00 3.63 90 1010.6
20260506121226 16 188 11.3 14.5 0.00 0.00 3.63 91 1010.4